Regional Weather Roundup
Issued by NWS

Home | Current Version | Previous Version | Text Only | Print | Product List | Glossary On
Versions: 1 2 3 4 5 6 7 8 9 10 11 12 13 14 15 16 17 18 19 20 21 22 23 24 25 26 27
000
ASPQ40 PGUM 252112
RWRPQ
WEATHER ROUNDUP FOR THE MARIANAS AND MICRONESIA
NATIONAL WEATHER SERVICE TIYAN GU
700 AM CHST WED APR 26 2017

GUZ001>004-252200-
MARIANA ISLANDS-

CITY           SKY/WX    TMP DP  RH WIND       PRES   REMARKS
GUAM AIRPORT   LGT RAIN  75  75 100 E3        29.93R
ANDERSEN AFB   CLOUDY    73  72  94 NE5       29.94R
ROTA AIRPORT   LGT RAIN  73  73 100 SW3       29.93S
TINIAN AP      PTSUNNY   77  75  94 NE2       29.91R
SAIPAN AP      MOSUNNY   77  73  88 E8        29.93R

$$

PMZ161-252200-
REPUBLIC OF PALAU-

CITY           SKY/WX    TMP DP  RH WIND       PRES   REMARKS
KOROR AP       MOCLDY    77  75  94 CALM      29.77R
KOROR WSO      CLOUDY    81  77  89 SE8       29.78R

$$

PMZ171>174-252200-
FEDERATED STATES OF MICRONESIA-

CITY           SKY/WX    TMP DP  RH WIND       PRES   REMARKS
YAP AIRPORT    CLOUDY    81  75  83 VRB5      29.77R
CHUUK AP       CLOUDY    82  77  83 NE9       29.85R HX  91
POHNPEI AP     NOT AVBL
POHNPEI WSO    CLOUDY    82  77  83 E7        29.90R HX  91
KOSRAE AP      PTSUNNY   84  75  74 E10       29.85  HX  92

$$

PMZ181-252200-
REPUBLIC OF THE MARSHALL ISLANDS-

CITY           SKY/WX    TMP DP  RH WIND       PRES   REMARKS
KWAJALEIN AP   MOSUNNY   84  73  70 NE15      29.89R HX  91
MAJURO AP      NOT AVBL
MAJURO WSO     CLOUDY    84  75  74 E10       29.86R HX  92

$$





USA.gov is the U.S. government's official web portal to all federal, state and local government web resources and services.